TimeEST,TemperatureF,Dew PointF,Humidity,Sea Level PressureIn,VisibilityMPH,Wind Direction,Wind SpeedMPH,Gust SpeedMPH,PrecipitationIn,Events,Conditions,WindDirDegrees,DateUTC
12:54 AM,39.0,34.0,82,30.15,10.0,Calm,Calm,-,N/A,,Clear,0,2012-12-01 05:54:00
1:54 AM,37.9,34.0,86,30.16,10.0,Calm,Calm,-,N/A,,Clear,0,2012-12-01 06:54:00
2:54 AM,36.0,32.0,86,30.17,9.0,ESE,3.5,-,N/A,,Clear,120,2012-12-01 07:54:00
3:54 AM,36.0,33.1,89,30.17,9.0,ESE,3.5,-,N/A,,Clear,120,2012-12-01 08:54:00
4:54 AM,37.0,35.1,93,30.17,8.0,Calm,Calm,-,N/A,,Clear,0,2012-12-01 09:54:00
6:54 AM,36.0,34.0,93,30.17,7.0,Calm,Calm,-,N/A,,Clear,0,2012-12-01 11:54:00
7:54 AM,37.9,35.1,89,30.18,5.0,Calm,Calm,-,N/A,,Clear,0,2012-12-01 12:54:00
8:54 AM,41.0,37.9,89,30.18,6.0,Calm,Calm,-,N/A,,Clear,0,2012-12-01 13:54:00
9:52 AM,48.2,42.8,82,30.15,7.0,SSW,5.8,-,N/A,,Scattered Clouds,200,2012-12-01 14:52:00
9:54 AM,48.0,43.0,83,30.16,7.0,SSW,9.2,-,N/A,,Scattered Clouds,200,2012-12-01 14:54:00
11:42 AM,55.4,44.6,67,30.13,9.0,SSW,8.1,-,N/A,,Mostly Cloudy,210,2012-12-01 16:42:00
11:54 AM,55.9,46.0,69,30.13,10.0,SSW,10.4,17.3,N/A,,Scattered Clouds,200,2012-12-01 16:54:00
12:34 PM,59.0,46.4,63,30.10,10.0,SW,8.1,-,N/A,,Mostly Cloudy,220,2012-12-01 17:34:00
12:54 PM,60.1,46.9,62,30.09,10.0,SSW,8.1,-,N/A,,Mostly Cloudy,210,2012-12-01 17:54:00
1:54 PM,61.0,48.0,62,30.07,10.0,SSW,13.8,21.9,N/A,,Clear,200,2012-12-01 18:54:00
2:54 PM,61.0,46.9,60,30.05,10.0,SSW,17.3,24.2,N/A,,Partly Cloudy,200,2012-12-01 19:54:00
3:54 PM,61.0,46.9,60,30.05,10.0,South,12.7,18.4,N/A,,Overcast,190,2012-12-01 20:54:00
4:54 PM,60.1,46.9,62,30.04,10.0,Variable,5.8,-,N/A,,Scattered Clouds,0,2012-12-01 21:54:00
6:54 PM,57.9,45.0,62,30.03,10.0,SSW,8.1,-,N/A,,Clear,200,2012-12-01 23:54:00
7:54 PM,57.9,45.0,62,30.03,10.0,SSW,11.5,-,N/A,,Clear,200,2012-12-02 00:54:00
8:54 PM,57.9,45.0,62,30.03,10.0,SSW,9.2,-,N/A,,Overcast,200,2012-12-02 01:54:00
9:54 PM,59.0,44.1,58,30.02,10.0,South,8.1,-,N/A,,Overcast,190,2012-12-02 02:54:00
10:54 PM,60.1,44.1,55,30.01,10.0,SSW,10.4,18.4,N/A,,Overcast,200,2012-12-02 03:54:00
11:54 PM,60.1,43.0,53,30.01,10.0,SSW,12.7,19.6,N/A,,Overcast,210,2012-12-02 04:54:00